Regional Weather Roundup
Issued by NWS

Home | Current Version | Previous Version | Text Only | Print | Product List | Glossary Off
Versions: 1 2 3 4 5 6 7 8 9 10 11 12 13 14 15 16 17 18 19 20 21 22 23 24 25 26 27 28 29 30 31 32 33 34 35 36 37 38 39 40 41 42 43 44 45 46 47 48 49 50

000
ASUS43 KOAX 242310
RWRNE

WEATHER ROUNDUP FOR NEBRASKA
NATIONAL WEATHER SERVICE OMAHA NE
600 PM CDT THU JUL 24 2014

NOTES: SATELLITE DATA IS BEING USED TO AUGMENT CLOUD COVER ABOVE
       12000 FEET.
       "FAIR" INDICATES FEW OR NO CLOUDS BELOW 12,000 FEET WITH NO
       SIGNIFICANT WEATHER AND/OR OBSTRUCTIONS TO VISIBILITY.

  * THESE STATIONS DO NOT REPORT WEATHER SUCH AS RAIN...SNOW OR FOG.

NEZ001>004-019>022-054>056-250000-
NEBRASKA PANHANDLE

CITY           SKY/WX    TMP DP  RH WIND       PRES   REMARKS
SCOTTSBLUFF    PTSUNNY  101  48  16 W22G31    29.88R HX  97
ALLIANCE       PTSUNNY   90  52  27 W15G30    29.90R THUNDER
CHADRON        CLOUDY    91  47  21 SW24G40   29.87R
KIMBALL        LGT RAIN  69  60  71 NE18      30.02R
SIDNEY         LGT RAIN  79  55  43 VRB3      30.00R
$$

NEZ057>060-069>072-079>082-250000-
SOUTHWEST NEBRASKA

CITY           SKY/WX    TMP DP  RH WIND       PRES   REMARKS
NORTH PLATTE   SUNNY    100  57  23 S18G26    29.79F HX  99
IMPERIAL       PTSUNNY   99  44  15 S15       29.82F HX  95
LEXINGTON      SUNNY     94  72  49 S20G29    29.83F HX 101
MCCOOK         MOSUNNY   99  56  23 S17G24    29.81F HX  97
OGALLALA       CLOUDY    88  65  45 W7        29.83F
$$

NEZ005>010-023>029-035>040-094-250000-
NORTH CENTRAL NEBRASKA

CITY           SKY/WX    TMP DP  RH WIND       PRES   REMARKS
VALENTINE      LGT RAIN 102  66  30 S21G29    29.72S HX 106
AINSWORTH      SUNNY     91  68  46 S25G35    29.76F HX  95
BROKEN BOW     SUNNY     93  71  48 S22G35    29.83F HX 100
O`NEILL        SUNNY     88  65  46 S26G32    29.82F HX  90
ORD            SUNNY     88  69  53 S18G28    29.82F HX  92
THEDFORD       MOSUNNY   97  67  37 S22G30    29.80F HX 101
$$

NEZ041-046>049-061>064-073>077-083>087-250000-
SOUTH CENTRAL NEBRASKA

CITY           SKY/WX    TMP DP  RH WIND       PRES   REMARKS
GRAND ISLAND   SUNNY     88  70  55 S15G30    29.87F HX  93
AURORA         SUNNY     87  68  53 S21       29.89F HX  90
HASTINGS       SUNNY     91  64  40 S15G21    29.88F HX  92
HEBRON         SUNNY     88  63  42 S15G23    29.91F
HOLDREGE       SUNNY     93  68  44 SE21G29   29.85F HX  97
KEARNEY *      SUNNY     91  72  52 SE20G25   29.85F HX  98
YORK           SUNNY     86  68  54 NE18G25   29.92R
$$

NEZ011>018-030>034-042>045-250000-
NORTHEAST NEBRASKA

CITY           SKY/WX    TMP DP  RH WIND       PRES   REMARKS
NORFOLK        SUNNY     84  64  50 S22G37    29.88F
ALBION         SUNNY     85  65  51 S22       29.87F
BLAIR          SUNNY     78  62  56 SE12G20   29.95S
COLUMBUS *     SUNNY     84  64  51 S23G29    29.90F
FREMONT        SUNNY     86  63  45 SE14G24   29.93R
TEKAMAH        PTSUNNY   81  63  54 SE15G23   29.95R
WAYNE          MOSUNNY   82  66  57 SE16G24   29.94R
$$

NEZ050>053-065>068-078-088>093-250000-
SOUTHEAST NEBRASKA

CITY           SKY/WX    TMP DP  RH WIND       PRES   REMARKS
LINCOLN        SUNNY     87  63  44 S22G29    29.94F
OMAHA EPPLEY   PTSUNNY   81  61  50 SE23      29.95F
BEATRICE       SUNNY     85  65  49 SE18      29.95S
FALLS CITY     SUNNY     83  62  49 SE12G20   29.98F
NEBRASKA CITY  SUNNY     82  60  48 SE17      29.98F
PLATTSMOUTH    SUNNY     81  60  49 SE14G23   29.96F
$$

NEZ044-045-051>053-067-250000-
OMAHA AREA

CITY           SKY/WX    TMP DP  RH WIND       PRES   REMARKS
OMAHA EPPLEY   PTSUNNY   81  61  50 SE23      29.95F
BLAIR          SUNNY     78  62  56 SE12G20   29.95S
FREMONT        SUNNY     86  63  45 SE14G24   29.93R
MILLARD        SUNNY     82  64  54 SE17G26   29.95R
OFFUTT AFB     SUNNY     80  63  56 SE20      29.95F
PLATTSMOUTH    SUNNY     81  60  49 SE14G23   29.96F
WAHOO          FAIR      85  62  45 SE18G24   29.92F
$$


USA.gov is the U.S. government's official web portal to all federal, state and local government web resources and services.